Time,TemperatureF,DewpointF,PressureIn,WindDirection,WindDirectionDegrees,WindSpeedMPH,WindSpeedGustMPH,Humidity,HourlyPrecipIn,Conditions,Clouds,dailyrainin,SoftwareType,DateUTC
2013-02-07 00:00:00,30.4,11.5,30.32,North,0,1.8,2.5,45,0.00,,,0.02,WUHU216HW,2013-02-07 05:00:00,
2013-02-07 00:01:00,30.4,11.5,30.32,NNW,338,2.5,2.5,45,0.00,,,0.00,WUHU216HW,2013-02-07 05:01:00,
2013-02-07 00:06:00,30.2,11.3,30.33,NNW,338,2.0,3.6,45,0.00,,,0.00,WUHU216HW,2013-02-07 05:06:00,
2013-02-07 00:11:00,30.2,11.9,30.32,ENE,68,0.7,3.6,46,0.00,,,0.00,WUHU216HW,2013-02-07 05:11:00,
2013-02-07 00:16:00,30.2,11.3,30.32,WSW,248,0.4,2.0,45,0.00,,,0.00,WUHU216HW,2013-02-07 05:16:00,
2013-02-07 00:21:00,30.2,11.9,30.32,North,0,0.4,2.0,46,0.00,,,0.00,WUHU216HW,2013-02-07 05:21:00,
2013-02-07 00:26:00,30.1,11.7,30.32,NNE,23,0.0,1.3,46,0.00,,,0.00,WUHU216HW,2013-02-07 05:26:00,
2013-02-07 00:31:00,30.1,12.2,30.32,NNW,338,0.0,0.7,47,0.00,,,0.00,WUHU216HW,2013-02-07 05:31:00,
2013-02-07 00:36:00,29.9,12.1,30.32,NW,315,1.3,1.8,47,0.00,,,0.00,WUHU216HW,2013-02-07 05:36:00,
2013-02-07 00:41:00,29.9,11.5,30.32,North,0,0.2,2.5,46,0.00,,,0.00,WUHU216HW,2013-02-07 05:41:00,
2013-02-07 00:46:00,29.9,12.1,30.32,North,0,0.2,2.5,47,0.00,,,0.00,WUHU216HW,2013-02-07 05:46:00,
2013-02-07 00:51:00,29.7,11.9,30.32,East,90,0.4,1.8,47,0.00,,,0.00,WUHU216HW,2013-02-07 05:51:00,
2013-02-07 00:56:00,29.7,11.9,30.32,SSE,158,0.0,0.4,47,0.00,,,0.00,WUHU216HW,2013-02-07 05:56:00,
2013-02-07 01:01:00,29.7,11.9,30.33,SSE,158,0.0,0.4,47,0.00,,,0.00,WUHU216HW,2013-02-07 06:01:00,
2013-02-07 01:06:00,29.5,11.7,30.33,SSE,158,0.0,0.0,47,0.00,,,0.00,WUHU216HW,2013-02-07 06:06:00,
2013-02-07 01:11:00,29.3,12.1,30.33,SSE,158,0.0,0.0,48,0.00,,,0.00,WUHU216HW,2013-02-07 06:11:00,
2013-02-07 01:16:00,29.2,11.9,30.33,SSE,158,0.0,0.0,48,0.00,,,0.00,WUHU216HW,2013-02-07 06:16:00,
2013-02-07 01:21:00,29.0,12.3,30.33,SSE,158,0.0,0.0,49,0.00,,,0.00,WUHU216HW,2013-02-07 06:21:00,
2013-02-07 01:26:00,29.0,12.3,30.34,SSE,158,0.0,0.0,49,0.00,,,0.00,WUHU216HW,2013-02-07 06:26:00,
2013-02-07 01:31:00,28.8,12.1,30.34,SSE,158,0.0,0.0,49,0.00,,,0.00,WUHU216HW,2013-02-07 06:31:00,
2013-02-07 01:36:00,28.8,12.6,30.35,SSE,158,0.0,0.0,50,0.00,,,0.00,WUHU216HW,2013-02-07 06:36:00,
2013-02-07 01:41:00,28.6,12.4,30.35,SSE,158,0.0,0.0,50,0.00,,,0.00,WUHU216HW,2013-02-07 06:41:00,
2013-02-07 01:46:00,28.4,12.2,30.35,SSE,158,0.0,0.0,50,0.00,,,0.00,WUHU216HW,2013-02-07 06:46:00,
2013-02-07 01:51:00,28.4,11.7,30.35,North,0,0.0,0.2,49,0.00,,,0.00,WUHU216HW,2013-02-07 06:51:00,
2013-02-07 01:56:00,28.3,12.1,30.35,NNE,23,0.0,1.1,50,0.00,,,0.00,WUHU216HW,2013-02-07 06:56:00,
2013-02-07 02:01:00,28.3,12.1,30.35,North,0,0.0,1.1,50,0.00,,,0.00,WUHU216HW,2013-02-07 07:01:00,
2013-02-07 02:06:00,28.1,11.9,30.35,North,0,0.0,0.4,50,0.00,,,0.00,WUHU216HW,2013-02-07 07:06:00,
2013-02-07 02:11:00,28.1,11.9,30.35,East,90,0.0,0.2,50,0.00,,,0.00,WUHU216HW,2013-02-07 07:11:00,
2013-02-07 02:16:00,28.1,12.3,30.35,NNW,338,0.0,0.4,51,0.00,,,0.00,WUHU216HW,2013-02-07 07:16:00,
2013-02-07 02:21:00,28.1,11.9,30.35,NNE,23,0.0,0.4,50,0.00,,,0.00,WUHU216HW,2013-02-07 07:21:00,
2013-02-07 02:26:00,27.9,12.2,30.35,NNE,23,0.0,0.0,51,0.00,,,0.00,WUHU216HW,2013-02-07 07:26:00,
2013-02-07 02:31:00,27.9,12.2,30.35,North,0,0.0,0.0,51,0.00,,,0.00,WUHU216HW,2013-02-07 07:31:00,
2013-02-07 02:36:00,27.7,12.0,30.35,North,0,0.0,0.0,51,0.00,,,0.00,WUHU216HW,2013-02-07 07:36:00,
2013-02-07 02:41:00,27.7,12.0,30.35,North,0,0.0,0.0,51,0.00,,,0.00,WUHU216HW,2013-02-07 07:41:00,
2013-02-07 02:46:00,27.5,11.8,30.35,North,0,0.0,0.0,51,0.00,,,0.00,WUHU216HW,2013-02-07 07:46:00,
2013-02-07 02:51:00,27.5,11.8,30.35,ENE,68,0.0,0.0,51,0.00,,,0.00,WUHU216HW,2013-02-07 07:51:00,
2013-02-07 02:56:00,27.4,12.0,30.36,ENE,68,0.0,0.0,52,0.00,,,0.00,WUHU216HW,2013-02-07 07:56:00,
2013-02-07 03:01:00,27.4,12.0,30.36,ENE,68,0.0,0.0,52,0.00,,,0.00,WUHU216HW,2013-02-07 08:01:00,
2013-02-07 03:06:00,27.2,11.8,30.37,ENE,68,0.0,0.0,52,0.00,,,0.00,WUHU216HW,2013-02-07 08:06:00,
2013-02-07 03:11:00,27.2,11.8,30.37,ENE,68,0.0,0.0,52,0.00,,,0.00,WUHU216HW,2013-02-07 08:11:00,
2013-02-07 03:16:00,27.0,12.1,30.37,ENE,68,0.0,0.0,53,0.00,,,0.00,WUHU216HW,2013-02-07 08:16:00,
2013-02-07 03:21:00,27.0,12.1,30.37,NE,45,0.0,0.0,53,0.00,,,0.00,WUHU216HW,2013-02-07 08:21:00,
2013-02-07 03:26:00,27.0,12.1,30.37,NE,45,0.0,0.0,53,0.00,,,0.00,WUHU216HW,2013-02-07 08:26:00,
2013-02-07 03:31:00,27.0,12.4,30.37,NE,45,0.0,0.0,54,0.00,,,0.00,WUHU216HW,2013-02-07 08:31:00,
2013-02-07 03:36:00,27.0,12.4,30.37,NE,45,0.0,0.0,54,0.00,,,0.00,WUHU216HW,2013-02-07 08:36:00,
2013-02-07 03:41:00,26.8,12.2,30.37,NE,45,0.0,0.0,54,0.00,,,0.00,WUHU216HW,2013-02-07 08:41:00,
2013-02-07 03:46:00,26.8,12.2,30.38,NE,45,0.0,0.0,54,0.00,,,0.00,WUHU216HW,2013-02-07 08:46:00,
2013-02-07 03:51:00,26.6,12.5,30.38,NE,45,0.0,0.0,55,0.00,,,0.00,WUHU216HW,2013-02-07 08:51:00,
2013-02-07 03:56:00,26.6,12.5,30.38,NE,45,0.0,0.0,55,0.00,,,0.00,WUHU216HW,2013-02-07 08:56:00,
2013-02-07 04:01:00,26.6,12.5,30.37,NE,45,0.0,0.0,55,0.00,,,0.00,WUHU216HW,2013-02-07 09:01:00,
2013-02-07 04:06:00,26.5,12.3,30.37,NNE,23,0.0,0.0,55,0.00,,,0.00,WUHU216HW,2013-02-07 09:06:00,
2013-02-07 04:11:00,26.5,12.8,30.38,NW,315,0.0,0.0,56,0.00,,,0.00,WUHU216HW,2013-02-07 09:11:00,
2013-02-07 04:16:00,26.5,12.8,30.39,SSW,203,0.0,0.0,56,0.00,,,0.00,WUHU216HW,2013-02-07 09:16:00,
2013-02-07 04:21:00,26.5,12.8,30.39,South,180,0.0,0.0,56,0.00,,,0.00,WUHU216HW,2013-02-07 09:21:00,
2013-02-07 04:26:00,26.3,12.6,30.39,North,0,0.0,0.0,56,0.00,,,0.00,WUHU216HW,2013-02-07 09:26:00,
2013-02-07 04:31:00,26.3,13.1,30.39,North,0,0.0,0.0,57,0.00,,,0.00,WUHU216HW,2013-02-07 09:31:00,
2013-02-07 04:36:00,26.3,13.1,30.39,NE,45,0.0,0.0,57,0.00,,,0.00,WUHU216HW,2013-02-07 09:36:00,
2013-02-07 04:41:00,26.3,13.1,30.39,NE,45,0.0,0.0,57,0.00,,,0.00,WUHU216HW,2013-02-07 09:41:00,
2013-02-07 04:46:00,26.1,12.9,30.39,NE,45,0.0,0.0,57,0.00,,,0.00,WUHU216HW,2013-02-07 09:46:00,
2013-02-07 04:51:00,26.1,12.9,30.39,ENE,68,0.0,0.0,57,0.00,,,0.00,WUHU216HW,2013-02-07 09:51:00,
2013-02-07 04:56:00,26.1,13.2,30.38,NE,45,0.0,0.0,58,0.00,,,0.00,WUHU216HW,2013-02-07 09:56:00,
2013-02-07 05:01:00,26.1,13.2,30.39,NE,45,0.0,0.0,58,0.00,,,0.00,WUHU216HW,2013-02-07 10:01:00,
2013-02-07 05:06:00,26.1,13.2,30.39,NE,45,0.0,0.0,58,0.00,,,0.00,WUHU216HW,2013-02-07 10:06:00,
2013-02-07 05:11:00,26.1,13.2,30.39,NE,45,0.0,0.0,58,0.00,,,0.00,WUHU216HW,2013-02-07 10:11:00,
2013-02-07 05:16:00,26.1,13.2,30.40,NE,45,0.0,0.2,58,0.00,,,0.00,WUHU216HW,2013-02-07 10:16:00,
2013-02-07 05:21:00,25.9,13.2,30.41,NE,45,0.0,0.2,58,0.00,,,0.00,WUHU216HW,2013-02-07 10:21:00,
2013-02-07 05:26:00,26.1,13.2,30.41,NE,45,0.2,0.2,58,0.00,,,0.00,WUHU216HW,2013-02-07 10:26:00,
2013-02-07 05:31:00,25.9,13.2,30.41,NE,45,0.0,0.2,58,0.00,,,0.00,WUHU216HW,2013-02-07 10:31:00,
2013-02-07 05:36:00,26.1,13.2,30.41,North,0,0.0,0.2,58,0.00,,,0.00,WUHU216HW,2013-02-07 10:36:00,
2013-02-07 05:41:00,26.1,13.2,30.41,SE,135,0.0,0.2,58,0.00,,,0.00,WUHU216HW,2013-02-07 10:41:00,
2013-02-07 05:46:00,26.1,13.2,30.41,ENE,68,0.0,0.4,58,0.00,,,0.00,WUHU216HW,2013-02-07 10:46:00,
2013-02-07 05:51:00,26.1,13.2,30.41,NE,45,0.0,0.7,58,0.00,,,0.00,WUHU216HW,2013-02-07 10:51:00,
2013-02-07 05:56:00,26.1,12.9,30.41,East,90,0.9,1.1,57,0.00,,,0.00,WUHU216HW,2013-02-07 10:56:00,
2013-02-07 06:01:00,26.3,12.6,30.41,ENE,68,1.1,1.3,56,0.00,,,0.00,WUHU216HW,2013-02-07 11:01:00,
2013-02-07 06:06:00,26.3,12.6,30.41,North,0,0.2,1.8,56,0.00,,,0.00,WUHU216HW,2013-02-07 11:06:00,
2013-02-07 06:11:00,26.5,12.3,30.41,ENE,68,0.0,1.8,55,0.00,,,0.00,WUHU216HW,2013-02-07 11:11:00,
2013-02-07 06:16:00,26.5,12.3,30.41,NNW,338,0.4,1.6,55,0.00,,,0.00,WUHU216HW,2013-02-07 11:16:00,
2013-02-07 06:21:00,26.5,12.3,30.41,ENE,68,0.2,1.6,55,0.00,,,0.00,WUHU216HW,2013-02-07 11:21:00,
2013-02-07 06:26:00,26.6,12.1,30.41,North,0,1.6,2.5,54,0.00,,,0.00,WUHU216HW,2013-02-07 11:26:00,
2013-02-07 06:31:00,26.5,12.0,30.42,ENE,68,1.1,2.7,54,0.00,,,0.00,WUHU216HW,2013-02-07 11:31:00,
2013-02-07 06:36:00,26.6,11.7,30.42,ENE,68,1.1,2.7,53,0.00,,,0.00,WUHU216HW,2013-02-07 11:36:00,
2013-02-07 06:41:00,26.6,11.7,30.42,ENE,68,0.4,1.8,53,0.00,,,0.00,WUHU216HW,2013-02-07 11:41:00,
2013-02-07 06:46:00,26.6,11.7,30.42,East,90,1.3,2.2,53,0.00,,,0.00,WUHU216HW,2013-02-07 11:46:00,
2013-02-07 06:51:00,26.6,11.7,30.43,ENE,68,1.3,3.4,53,0.00,,,0.00,WUHU216HW,2013-02-07 11:51:00,
2013-02-07 06:56:00,26.8,11.9,30.43,East,90,0.7,3.4,53,0.00,,,0.00,WUHU216HW,2013-02-07 11:56:00,
2013-02-07 07:01:00,26.8,11.9,30.44,East,90,0.2,2.2,53,0.00,,,0.00,WUHU216HW,2013-02-07 12:01:00,
2013-02-07 07:06:00,26.8,11.9,30.44,NE,45,0.7,2.2,53,0.00,,,0.00,WUHU216HW,2013-02-07 12:06:00,
2013-02-07 07:11:00,26.8,11.9,30.44,NE,45,1.3,1.6,53,0.00,,,0.00,WUHU216HW,2013-02-07 12:11:00,
2013-02-07 07:16:00,26.8,11.9,30.45,North,0,0.4,2.9,53,0.00,,,0.00,WUHU216HW,2013-02-07 12:16:00,
2013-02-07 07:21:00,27.0,12.1,30.45,ENE,68,0.4,2.9,53,0.00,,,0.00,WUHU216HW,2013-02-07 12:21:00,
2013-02-07 07:26:00,27.0,12.1,30.45,ENE,68,0.4,2.7,53,0.00,,,0.00,WUHU216HW,2013-02-07 12:26:00,
2013-02-07 07:31:00,27.0,12.1,30.46,North,0,0.0,2.7,53,0.00,,,0.00,WUHU216HW,2013-02-07 12:31:00,
2013-02-07 07:36:00,27.0,12.1,30.46,NNW,338,0.0,1.1,53,0.00,,,0.00,WUHU216HW,2013-02-07 12:36:00,
2013-02-07 07:41:00,27.0,12.1,30.46,North,0,0.7,1.8,53,0.00,,,0.00,WUHU216HW,2013-02-07 12:41:00,
2013-02-07 07:46:00,27.0,12.1,30.46,North,0,2.9,2.9,53,0.00,,,0.00,WUHU216HW,2013-02-07 12:46:00,
2013-02-07 07:51:00,27.0,12.1,30.47,ESE,113,1.1,4.0,53,0.00,,,0.00,WUHU216HW,2013-02-07 12:51:00,
2013-02-07 07:56:00,27.0,12.4,30.47,NNE,23,1.6,4.0,54,0.00,,,0.00,WUHU216HW,2013-02-07 12:56:00,
2013-02-07 08:01:00,27.0,12.4,30.47,NNE,23,0.9,2.7,54,0.00,,,0.00,WUHU216HW,2013-02-07 13:01:00,
2013-02-07 08:06:00,27.2,12.6,30.47,NE,45,0.7,2.7,54,0.00,,,0.00,WUHU216HW,2013-02-07 13:06:00,
2013-02-07 08:11:00,27.2,12.3,30.47,North,0,1.8,3.6,53,0.00,,,0.00,WUHU216HW,2013-02-07 13:11:00,
2013-02-07 08:16:00,27.2,12.3,30.47,North,0,0.4,3.6,53,0.00,,,0.00,WUHU216HW,2013-02-07 13:16:00,
2013-02-07 08:21:00,27.4,12.4,30.47,NNE,23,3.8,3.8,53,0.00,,,0.00,WUHU216HW,2013-02-07 13:21:00,
2013-02-07 08:26:00,27.4,12.4,30.48,North,0,1.1,3.8,53,0.00,,,0.00,WUHU216HW,2013-02-07 13:26:00,
2013-02-07 08:31:00,27.5,12.6,30.48,East,90,0.4,3.8,53,0.00,,,0.00,WUHU216HW,2013-02-07 13:31:00,
2013-02-07 08:36:00,27.7,12.8,30.48,East,90,0.4,2.5,53,0.00,,,0.00,WUHU216HW,2013-02-07 13:36:00,
2013-02-07 08:41:00,27.7,12.8,30.49,East,90,1.1,2.0,53,0.00,,,0.00,WUHU216HW,2013-02-07 13:41:00,
2013-02-07 08:46:00,27.7,12.8,30.48,North,0,0.4,2.0,53,0.00,,,0.00,WUHU216HW,2013-02-07 13:46:00,
2013-02-07 08:51:00,27.9,12.5,30.48,North,0,2.7,2.9,52,0.00,,,0.00,WUHU216HW,2013-02-07 13:51:00,
2013-02-07 08:56:00,27.9,13.0,30.48,NE,45,2.7,2.9,53,0.00,,,0.00,WUHU216HW,2013-02-07 13:56:00,
2013-02-07 09:01:00,28.1,12.7,30.49,NE,45,0.4,3.1,52,0.00,,,0.00,WUHU216HW,2013-02-07 14:01:00,
2013-02-07 09:06:00,28.3,12.9,30.49,ENE,68,1.1,3.1,52,0.00,,,0.00,WUHU216HW,2013-02-07 14:06:00,
2013-02-07 09:11:00,28.4,13.1,30.49,NE,45,1.1,3.8,52,0.00,,,0.00,WUHU216HW,2013-02-07 14:11:00,
2013-02-07 09:16:00,28.4,13.1,30.49,NNW,338,0.4,3.8,52,0.00,,,0.00,WUHU216HW,2013-02-07 14:16:00,
2013-02-07 09:21:00,28.6,13.2,30.49,ENE,68,1.1,1.8,52,0.00,,,0.00,WUHU216HW,2013-02-07 14:21:00,
2013-02-07 09:26:00,28.6,13.2,30.48,ENE,68,0.4,2.7,52,0.00,,,0.00,WUHU216HW,2013-02-07 14:26:00,
2013-02-07 09:31:00,28.8,13.4,30.47,ENE,68,2.9,3.8,52,0.00,,,0.00,WUHU216HW,2013-02-07 14:31:00,
2013-02-07 09:36:00,28.8,13.4,30.47,ENE,68,2.5,3.8,52,0.00,,,0.00,WUHU216HW,2013-02-07 14:36:00,
2013-02-07 09:41:00,29.0,12.7,30.46,North,0,2.9,3.6,50,0.00,,,0.00,WUHU216HW,2013-02-07 14:41:00,
2013-02-07 09:46:00,29.0,13.6,30.46,ENE,68,1.8,2.9,52,0.00,,,0.00,WUHU216HW,2013-02-07 14:46:00,
2013-02-07 09:51:00,29.2,13.7,30.46,NE,45,3.1,3.1,52,0.00,,,0.00,WUHU216HW,2013-02-07 14:51:00,
2013-02-07 09:56:00,29.2,13.7,30.46,NNE,23,1.3,4.0,52,0.00,,,0.00,WUHU216HW,2013-02-07 14:56:00,
2013-02-07 10:01:00,29.2,13.3,30.46,NE,45,2.5,4.0,51,0.00,,,0.00,WUHU216HW,2013-02-07 15:01:00,
2013-02-07 10:06:00,29.2,13.3,30.46,ESE,113,0.4,3.4,51,0.00,,,0.00,WUHU216HW,2013-02-07 15:06:00,
2013-02-07 10:11:00,29.3,13.5,30.47,North,0,1.6,2.5,51,0.00,,,0.00,WUHU216HW,2013-02-07 15:11:00,
2013-02-07 10:16:00,29.5,13.6,30.48,NNE,23,2.0,2.2,51,0.00,,,0.00,WUHU216HW,2013-02-07 15:16:00,
2013-02-07 10:21:00,29.9,14.0,30.49,NNW,338,1.8,2.2,51,0.00,,,0.00,WUHU216HW,2013-02-07 15:21:00,
2013-02-07 10:26:00,29.9,14.0,30.50,ENE,68,1.8,2.5,51,0.00,,,0.00,WUHU216HW,2013-02-07 15:26:00,
2013-02-07 10:31:00,30.1,13.7,30.49,North,0,2.0,2.5,50,0.00,,,0.00,WUHU216HW,2013-02-07 15:31:00,
2013-02-07 10:36:00,30.2,14.3,30.49,NNW,338,0.7,2.0,51,0.00,,,0.00,WUHU216HW,2013-02-07 15:36:00,
2013-02-07 10:41:00,30.4,14.1,30.49,NNW,338,2.5,2.5,50,0.00,,,0.00,WUHU216HW,2013-02-07 15:41:00,
2013-02-07 10:46:00,30.6,14.2,30.49,East,90,1.8,2.9,50,0.00,,,0.00,WUHU216HW,2013-02-07 15:46:00,
2013-02-07 10:51:00,30.8,14.3,30.49,NNE,23,0.9,3.4,50,0.00,,,0.00,WUHU216HW,2013-02-07 15:51:00,
2013-02-07 10:56:00,31.0,14.5,30.50,NNW,338,1.3,3.4,50,0.00,,,0.00,WUHU216HW,2013-02-07 15:56:00,
2013-02-07 11:01:00,31.0,14.5,30.49,ESE,113,1.1,3.1,50,0.00,,,0.00,WUHU216HW,2013-02-07 16:01:00,
2013-02-07 11:06:00,31.1,14.1,30.49,NNE,23,1.1,3.4,49,0.00,,,0.00,WUHU216HW,2013-02-07 16:06:00,
2013-02-07 11:11:00,31.3,14.3,30.48,NNW,338,0.7,3.4,49,0.00,,,0.00,WUHU216HW,2013-02-07 16:11:00,
2013-02-07 11:16:00,31.3,14.3,30.48,NNW,338,1.6,2.9,49,0.00,,,0.00,WUHU216HW,2013-02-07 16:16:00,
2013-02-07 11:21:00,31.5,14.0,30.48,ENE,68,1.3,3.6,48,0.00,,,0.00,WUHU216HW,2013-02-07 16:21:00,
2013-02-07 11:26:00,31.5,14.5,30.48,WSW,248,0.9,3.6,49,0.00,,,0.00,WUHU216HW,2013-02-07 16:26:00,
2013-02-07 11:31:00,31.3,13.9,30.48,East,90,1.1,2.7,48,0.00,,,0.00,WUHU216HW,2013-02-07 16:31:00,
2013-02-07 11:36:00,31.3,14.3,30.47,ENE,68,0.9,2.5,49,0.00,,,0.00,WUHU216HW,2013-02-07 16:36:00,
2013-02-07 11:41:00,31.7,14.1,30.47,NE,45,1.8,2.5,48,0.00,,,0.00,WUHU216HW,2013-02-07 16:41:00,
2013-02-07 11:46:00,31.7,14.1,30.47,East,90,1.1,4.0,48,0.00,,,0.00,WUHU216HW,2013-02-07 16:46:00,
2013-02-07 11:51:00,31.7,14.1,30.46,East,90,3.4,4.0,48,0.00,,,0.00,WUHU216HW,2013-02-07 16:51:00,
2013-02-07 11:56:00,31.7,13.7,30.45,NE,45,1.8,4.7,47,0.00,,,0.00,WUHU216HW,2013-02-07 16:56:00,
2013-02-07 12:01:00,31.5,13.5,30.45,East,90,1.1,4.7,47,0.00,,,0.00,WUHU216HW,2013-02-07 17:01:00,
2013-02-07 12:06:00,31.5,13.5,30.45,SSE,158,1.1,2.7,47,0.00,,,0.00,WUHU216HW,2013-02-07 17:06:00,
2013-02-07 12:11:00,31.9,13.8,30.45,NE,45,1.1,3.1,47,0.00,,,0.00,WUHU216HW,2013-02-07 17:11:00,
2013-02-07 12:16:00,32.0,14.0,30.46,NE,45,1.1,3.1,47,0.00,,,0.00,WUHU216HW,2013-02-07 17:16:00,
2013-02-07 12:21:00,32.0,13.5,30.46,ENE,68,1.6,4.0,46,0.00,,,0.00,WUHU216HW,2013-02-07 17:21:00,
2013-02-07 12:26:00,32.0,13.5,30.46,ESE,113,2.5,5.8,46,0.00,,,0.00,WUHU216HW,2013-02-07 17:26:00,
2013-02-07 12:31:00,32.0,13.0,30.45,NE,45,1.1,5.8,45,0.00,,,0.00,WUHU216HW,2013-02-07 17:31:00,
2013-02-07 12:36:00,32.0,13.5,30.45,NNE,23,2.5,4.0,46,0.00,,,0.00,WUHU216HW,2013-02-07 17:36:00,
2013-02-07 12:41:00,32.2,13.6,30.45,East,90,3.6,4.5,46,0.00,,,0.00,WUHU216HW,2013-02-07 17:41:00,
2013-02-07 12:46:00,32.2,13.2,30.45,NNW,338,0.2,4.5,45,0.00,,,0.00,WUHU216HW,2013-02-07 17:46:00,
2013-02-07 12:51:00,32.2,13.2,30.45,ENE,68,0.4,3.6,45,0.00,,,0.00,WUHU216HW,2013-02-07 17:51:00,
2013-02-07 12:56:00,32.6,13.4,30.45,East,90,1.1,4.0,45,0.00,,,0.00,WUHU216HW,2013-02-07 17:56:00,
2013-02-07 13:01:00,32.6,13.4,30.44,ENE,68,1.3,4.0,45,0.00,,,0.00,WUHU216HW,2013-02-07 18:01:00,
2013-02-07 13:06:00,32.6,13.4,30.44,ESE,113,0.9,3.6,45,0.00,,,0.00,WUHU216HW,2013-02-07 18:06:00,
2013-02-07 13:11:00,32.6,13.4,30.44,East,90,1.1,3.6,45,0.00,,,0.00,WUHU216HW,2013-02-07 18:11:00,
2013-02-07 13:16:00,32.8,13.6,30.44,ENE,68,1.3,3.1,45,0.00,,,0.00,WUHU216HW,2013-02-07 18:16:00,
2013-02-07 13:21:00,32.8,13.2,30.44,ESE,113,1.8,3.8,44,0.00,,,0.00,WUHU216HW,2013-02-07 18:21:00,
2013-02-07 13:26:00,32.6,12.4,30.44,ESE,113,0.4,4.0,43,0.00,,,0.00,WUHU216HW,2013-02-07 18:26:00,
2013-02-07 13:31:00,32.8,13.2,30.44,ESE,113,1.8,4.0,44,0.00,,,0.00,WUHU216HW,2013-02-07 18:31:00,
2013-02-07 13:36:00,32.8,13.2,30.44,North,0,2.2,2.7,44,0.00,,,0.00,WUHU216HW,2013-02-07 18:36:00,
2013-02-07 13:41:00,32.8,12.6,30.44,ENE,68,1.8,2.7,43,0.00,,,0.00,WUHU216HW,2013-02-07 18:41:00,
2013-02-07 13:46:00,32.8,12.6,30.43,ENE,68,0.4,2.2,43,0.00,,,0.00,WUHU216HW,2013-02-07 18:46:00,
2013-02-07 13:51:00,32.8,12.6,30.44,East,90,2.7,3.4,43,0.00,,,0.00,WUHU216HW,2013-02-07 18:51:00,
2013-02-07 13:56:00,32.9,12.8,30.43,East,90,1.8,3.4,43,0.00,,,0.00,WUHU216HW,2013-02-07 18:56:00,
2013-02-07 14:01:00,32.9,12.8,30.43,ENE,68,0.9,3.4,43,0.00,,,0.00,WUHU216HW,2013-02-07 19:01:00,
2013-02-07 14:06:00,33.1,13.0,30.43,North,0,0.4,3.4,43,0.00,,,0.00,WUHU216HW,2013-02-07 19:06:00,
2013-02-07 14:11:00,33.1,12.4,30.42,SSW,203,0.0,2.0,42,0.00,,,0.00,WUHU216HW,2013-02-07 19:11:00,
2013-02-07 14:16:00,33.3,13.1,30.43,SSW,203,0.4,1.6,43,0.00,,,0.00,WUHU216HW,2013-02-07 19:16:00,
2013-02-07 14:21:00,33.3,12.6,30.42,East,90,1.8,3.6,42,0.00,,,0.00,WUHU216HW,2013-02-07 19:21:00,
2013-02-07 14:26:00,33.1,12.4,30.42,ENE,68,0.4,3.6,42,0.00,,,0.00,WUHU216HW,2013-02-07 19:26:00,
2013-02-07 14:31:00,33.3,12.6,30.42,East,90,2.0,2.2,42,0.00,,,0.00,WUHU216HW,2013-02-07 19:31:00,
2013-02-07 14:36:00,33.3,12.6,30.42,East,90,1.6,2.2,42,0.00,,,0.00,WUHU216HW,2013-02-07 19:36:00,
2013-02-07 14:41:00,33.5,12.8,30.42,East,90,1.1,1.8,42,0.00,,,0.00,WUHU216HW,2013-02-07 19:41:00,
2013-02-07 14:46:00,33.5,12.8,30.42,NNE,23,0.4,1.8,42,0.00,,,0.00,WUHU216HW,2013-02-07 19:46:00,
2013-02-07 14:51:00,33.5,12.8,30.42,ENE,68,0.0,1.6,42,0.00,,,0.00,WUHU216HW,2013-02-07 19:51:00,
2013-02-07 14:56:00,33.5,12.8,30.42,East,90,0.4,2.7,42,0.00,,,0.00,WUHU216HW,2013-02-07 19:56:00,
2013-02-07 15:01:00,33.5,12.2,30.42,SE,135,0.9,2.7,41,0.00,,,0.00,WUHU216HW,2013-02-07 20:01:00,
2013-02-07 15:06:00,33.5,12.2,30.42,ENE,68,1.8,3.1,41,0.00,,,0.00,WUHU216HW,2013-02-07 20:06:00,
2013-02-07 15:11:00,33.5,12.2,30.42,ESE,113,2.7,3.1,41,0.00,,,0.00,WUHU216HW,2013-02-07 20:11:00,
2013-02-07 15:16:00,33.5,12.2,30.41,East,90,1.3,3.4,41,0.00,,,0.00,WUHU216HW,2013-02-07 20:16:00,
2013-02-07 15:21:00,33.5,12.2,30.41,ESE,113,1.8,4.5,41,0.00,,,0.00,WUHU216HW,2013-02-07 20:21:00,
2013-02-07 15:26:00,33.5,12.8,30.41,East,90,1.3,4.5,42,0.00,,,0.00,WUHU216HW,2013-02-07 20:26:00,
2013-02-07 15:31:00,33.5,12.2,30.41,ENE,68,2.0,3.4,41,0.00,,,0.00,WUHU216HW,2013-02-07 20:31:00,
2013-02-07 15:36:00,33.5,12.2,30.41,ESE,113,0.4,3.4,41,0.00,,,0.00,WUHU216HW,2013-02-07 20:36:00,
2013-02-07 15:41:00,33.5,12.2,30.41,East,90,0.7,2.0,41,0.00,,,0.00,WUHU216HW,2013-02-07 20:41:00,
2013-02-07 15:46:00,33.5,12.2,30.40,South,180,1.8,2.0,41,0.00,,,0.00,WUHU216HW,2013-02-07 20:46:00,
2013-02-07 15:51:00,33.3,12.1,30.40,ENE,68,1.8,2.7,41,0.00,,,0.00,WUHU216HW,2013-02-07 20:51:00,
2013-02-07 15:56:00,33.1,12.4,30.40,South,180,0.2,2.9,42,0.00,,,0.00,WUHU216HW,2013-02-07 20:56:00,
2013-02-07 16:01:00,33.1,12.4,30.40,NNE,23,0.7,2.9,42,0.00,,,0.00,WUHU216HW,2013-02-07 21:01:00,
2013-02-07 16:06:00,32.8,12.6,30.40,SSW,203,1.1,4.0,43,0.00,,,0.00,WUHU216HW,2013-02-07 21:06:00,
2013-02-07 16:11:00,32.8,12.6,30.40,East,90,0.9,4.0,43,0.00,,,0.00,WUHU216HW,2013-02-07 21:11:00,
2013-02-07 16:16:00,32.8,12.6,30.40,ESE,113,0.4,2.2,43,0.00,,,0.00,WUHU216HW,2013-02-07 21:16:00,
2013-02-07 16:21:00,32.6,13.0,30.40,ESE,113,0.9,3.4,44,0.00,,,0.00,WUHU216HW,2013-02-07 21:21:00,
2013-02-07 16:26:00,32.4,12.8,30.39,East,90,2.0,3.4,44,0.00,,,0.00,WUHU216HW,2013-02-07 21:26:00,
2013-02-07 16:31:00,32.2,12.6,30.40,ENE,68,1.3,4.0,44,0.00,,,0.00,WUHU216HW,2013-02-07 21:31:00,
2013-02-07 16:36:00,32.2,12.6,30.40,ENE,68,1.3,4.0,44,0.00,,,0.00,WUHU216HW,2013-02-07 21:36:00,
2013-02-07 16:41:00,32.2,13.2,30.39,East,90,1.8,4.0,45,0.00,,,0.00,WUHU216HW,2013-02-07 21:41:00,
2013-02-07 16:46:00,32.0,13.0,30.40,East,90,1.8,4.7,45,0.00,,,0.00,WUHU216HW,2013-02-07 21:46:00,
2013-02-07 16:51:00,32.0,13.0,30.40,East,90,1.1,4.7,45,0.00,,,0.00,WUHU216HW,2013-02-07 21:51:00,
2013-02-07 16:56:00,32.0,13.0,30.39,ESE,113,0.4,2.2,45,0.00,,,0.00,WUHU216HW,2013-02-07 21:56:00,
2013-02-07 17:01:00,32.0,13.5,30.40,NE,45,1.8,2.5,46,0.00,,,0.00,WUHU216HW,2013-02-07 22:01:00,
2013-02-07 17:06:00,31.9,13.8,30.39,ENE,68,2.7,4.0,47,0.00,,,0.00,WUHU216HW,2013-02-07 22:06:00,
2013-02-07 17:11:00,31.7,14.1,30.39,ENE,68,1.1,4.0,48,0.00,,,0.00,WUHU216HW,2013-02-07 22:11:00,
2013-02-07 17:16:00,31.7,14.7,30.39,ENE,68,3.4,3.4,49,0.00,,,0.00,WUHU216HW,2013-02-07 22:16:00,
2013-02-07 17:21:00,31.5,14.5,30.39,East,90,1.8,4.3,49,0.00,,,0.00,WUHU216HW,2013-02-07 22:21:00,
2013-02-07 17:26:00,31.5,15.0,30.39,East,90,2.2,4.3,50,0.00,,,0.00,WUHU216HW,2013-02-07 22:26:00,
2013-02-07 17:31:00,31.3,14.9,30.39,East,90,0.9,3.8,50,0.00,,,0.00,WUHU216HW,2013-02-07 22:31:00,
2013-02-07 17:36:00,31.3,15.3,30.39,ESE,113,0.7,3.8,51,0.00,,,0.00,WUHU216HW,2013-02-07 22:36:00,
2013-02-07 17:41:00,31.3,15.3,30.39,East,90,2.5,2.5,51,0.00,,,0.00,WUHU216HW,2013-02-07 22:41:00,
2013-02-07 17:46:00,31.3,15.7,30.39,ESE,113,1.1,3.6,52,0.00,,,0.00,WUHU216HW,2013-02-07 22:46:00,
2013-02-07 17:51:00,31.3,15.7,30.39,East,90,1.1,3.6,52,0.00,,,0.00,WUHU216HW,2013-02-07 22:51:00,
2013-02-07 17:56:00,31.3,15.7,30.39,East,90,1.6,5.6,52,0.00,,,0.00,WUHU216HW,2013-02-07 22:56:00,
2013-02-07 18:01:00,31.3,15.7,30.39,NE,45,2.0,5.6,52,0.00,,,0.00,WUHU216HW,2013-02-07 23:01:00,
2013-02-07 18:06:00,31.3,16.1,30.39,East,90,4.7,4.7,53,0.00,,,0.00,WUHU216HW,2013-02-07 23:06:00,
2013-02-07 18:11:00,31.3,16.1,30.39,East,90,1.3,4.7,53,0.00,,,0.00,WUHU216HW,2013-02-07 23:11:00,
2013-02-07 18:16:00,31.3,16.1,30.39,ESE,113,2.0,4.7,53,0.00,,,0.00,WUHU216HW,2013-02-07 23:16:00,
2013-02-07 18:21:00,31.3,16.1,30.39,ESE,113,2.5,4.0,53,0.00,,,0.00,WUHU216HW,2013-02-07 23:21:00,
2013-02-07 18:26:00,31.3,16.6,30.39,East,90,2.7,4.0,54,0.00,,,0.00,WUHU216HW,2013-02-07 23:26:00,
2013-02-07 18:31:00,31.3,16.6,30.39,ESE,113,1.1,4.7,54,0.00,,,0.00,WUHU216HW,2013-02-07 23:31:00,
2013-02-07 18:36:00,31.1,16.8,30.39,East,90,3.8,4.7,55,0.00,,,0.00,WUHU216HW,2013-02-07 23:36:00,
2013-02-07 18:41:00,31.1,16.4,30.39,NE,45,0.7,4.5,54,0.00,,,0.00,WUHU216HW,2013-02-07 23:41:00,
2013-02-07 18:46:00,31.1,16.8,30.39,East,90,1.1,4.0,55,0.00,,,0.00,WUHU216HW,2013-02-07 23:46:00,
2013-02-07 18:51:00,31.1,16.8,30.39,East,90,3.4,3.4,55,0.00,,,0.00,WUHU216HW,2013-02-07 23:51:00,
2013-02-07 18:56:00,31.1,16.8,30.39,NE,45,0.9,3.4,55,0.00,,,0.00,WUHU216HW,2013-02-07 23:56:00,
2013-02-07 19:01:00,31.1,16.8,30.40,ENE,68,1.1,3.4,55,0.00,,,0.00,WUHU216HW,2013-02-08 00:01:00,
2013-02-07 19:06:00,31.0,17.0,30.40,NE,45,2.5,2.9,56,0.00,,,0.00,WUHU216HW,2013-02-08 00:06:00,
2013-02-07 19:11:00,31.0,17.0,30.40,East,90,0.7,2.5,56,0.00,,,0.00,WUHU216HW,2013-02-08 00:11:00,
2013-02-07 19:16:00,31.0,17.0,30.40,ESE,113,0.7,2.5,56,0.00,,,0.00,WUHU216HW,2013-02-08 00:16:00,
2013-02-07 19:21:00,31.0,17.0,30.40,ENE,68,0.4,3.4,56,0.00,,,0.00,WUHU216HW,2013-02-08 00:21:00,
2013-02-07 19:26:00,31.0,17.5,30.40,East,90,1.8,3.4,57,0.00,,,0.00,WUHU216HW,2013-02-08 00:26:00,
2013-02-07 19:31:00,31.0,17.5,30.40,SE,135,0.0,2.0,57,0.00,,,0.00,WUHU216HW,2013-02-08 00:31:00,
2013-02-07 19:36:00,31.0,17.5,30.40,East,90,0.4,2.0,57,0.00,,,0.00,WUHU216HW,2013-02-08 00:36:00,
2013-02-07 19:41:00,31.0,17.5,30.40,East,90,0.4,1.3,57,0.00,,,0.00,WUHU216HW,2013-02-08 00:41:00,
2013-02-07 19:46:00,31.0,17.5,30.40,East,90,0.9,1.8,57,0.00,,,0.00,WUHU216HW,2013-02-08 00:46:00,
2013-02-07 19:51:00,31.0,17.5,30.40,East,90,0.7,1.8,57,0.00,,,0.00,WUHU216HW,2013-02-08 00:51:00,
2013-02-07 19:56:00,31.0,17.5,30.40,East,90,0.9,1.8,57,0.00,,,0.00,WUHU216HW,2013-02-08 00:56:00,
2013-02-07 20:01:00,31.0,17.5,30.40,East,90,0.0,1.8,57,0.00,,,0.00,WUHU216HW,2013-02-08 01:01:00,
2013-02-07 20:06:00,31.0,17.9,30.40,NE,45,0.0,2.2,58,0.00,,,0.00,WUHU216HW,2013-02-08 01:06:00,
2013-02-07 20:11:00,31.0,17.9,30.39,ENE,68,0.4,2.2,58,0.00,,,0.00,WUHU216HW,2013-02-08 01:11:00,
2013-02-07 20:16:00,31.0,17.9,30.39,NE,45,1.3,1.8,58,0.00,,,0.00,WUHU216HW,2013-02-08 01:16:00,
2013-02-07 20:21:00,31.0,18.3,30.39,NNE,23,2.5,2.5,59,0.00,,,0.00,WUHU216HW,2013-02-08 01:21:00,
2013-02-07 20:26:00,31.0,18.3,30.39,ENE,68,0.9,2.5,59,0.00,,,0.00,WUHU216HW,2013-02-08 01:26:00,
2013-02-07 20:31:00,31.0,18.3,30.39,ENE,68,0.9,2.5,59,0.00,,,0.00,WUHU216HW,2013-02-08 01:31:00,
2013-02-07 20:36:00,31.0,18.7,30.39,ENE,68,1.6,2.9,60,0.00,,,0.00,WUHU216HW,2013-02-08 01:36:00,
2013-02-07 20:41:00,31.0,18.7,30.39,ENE,68,0.4,2.9,60,0.00,,,0.00,WUHU216HW,2013-02-08 01:41:00,
2013-02-07 20:46:00,31.0,18.7,30.39,ENE,68,0.9,3.1,60,0.00,,,0.00,WUHU216HW,2013-02-08 01:46:00,
2013-02-07 20:51:00,31.0,18.7,30.38,ESE,113,0.0,3.1,60,0.00,,,0.00,WUHU216HW,2013-02-08 01:51:00,
2013-02-07 20:56:00,30.8,18.9,30.38,ENE,68,1.3,3.4,61,0.00,,,0.00,WUHU216HW,2013-02-08 01:56:00,
2013-02-07 21:01:00,31.0,19.1,30.38,East,90,0.4,3.4,61,0.00,,,0.00,WUHU216HW,2013-02-08 02:01:00,
2013-02-07 21:06:00,31.0,19.1,30.38,ENE,68,1.8,1.8,61,0.00,,,0.00,WUHU216HW,2013-02-08 02:06:00,
2013-02-07 21:11:00,31.0,19.4,30.38,NNE,23,1.8,2.7,62,0.00,,,0.00,WUHU216HW,2013-02-08 02:11:00,
2013-02-07 21:16:00,31.0,19.4,30.37,ENE,68,0.7,2.7,62,0.00,,,0.00,WUHU216HW,2013-02-08 02:16:00,
2013-02-07 21:21:00,31.0,19.4,30.38,East,90,1.3,3.1,62,0.00,,,0.00,WUHU216HW,2013-02-08 02:21:00,
2013-02-07 21:26:00,31.1,19.6,30.37,East,90,2.2,3.1,62,0.00,,,0.00,WUHU216HW,2013-02-08 02:26:00,
2013-02-07 21:31:00,31.1,20.0,30.37,ENE,68,1.6,4.0,63,0.00,,,0.00,WUHU216HW,2013-02-08 02:31:00,
2013-02-07 21:36:00,31.3,20.2,30.37,ENE,68,1.1,4.0,63,0.00,,,0.00,WUHU216HW,2013-02-08 02:36:00,
2013-02-07 21:41:00,31.3,20.2,30.37,East,90,0.7,3.8,63,0.00,,,0.00,WUHU216HW,2013-02-08 02:41:00,
2013-02-07 21:46:00,31.3,20.5,30.37,NE,45,0.7,3.1,64,0.00,,,0.00,WUHU216HW,2013-02-08 02:46:00,
2013-02-07 21:51:00,31.5,20.7,30.37,NE,45,1.6,3.1,64,0.00,,,0.00,WUHU216HW,2013-02-08 02:51:00,
2013-02-07 21:56:00,31.5,20.7,30.36,ENE,68,0.9,1.6,64,0.00,,,0.00,WUHU216HW,2013-02-08 02:56:00,
2013-02-07 22:01:00,31.7,20.9,30.36,East,90,2.9,2.9,64,0.00,,,0.00,WUHU216HW,2013-02-08 03:01:00,
2013-02-07 22:06:00,31.7,20.9,30.36,North,0,0.0,2.9,64,0.00,,,0.00,WUHU216HW,2013-02-08 03:06:00,
2013-02-07 22:11:00,31.7,21.2,30.36,ESE,113,2.0,2.9,65,0.00,,,0.00,WUHU216HW,2013-02-08 03:11:00,
2013-02-07 22:16:00,31.7,21.2,30.36,North,0,0.2,2.5,65,0.00,,,0.00,WUHU216HW,2013-02-08 03:16:00,
2013-02-07 22:21:00,31.9,21.4,30.36,ENE,68,1.3,2.5,65,0.00,,,0.00,WUHU216HW,2013-02-08 03:21:00,
2013-02-07 22:26:00,31.9,21.4,30.35,ESE,113,2.9,2.9,65,0.00,,,0.00,WUHU216HW,2013-02-08 03:26:00,
2013-02-07 22:31:00,32.0,22.0,30.35,East,90,4.0,4.0,66,0.00,,,0.00,WUHU216HW,2013-02-08 03:31:00,
2013-02-07 22:36:00,32.0,22.0,30.35,NE,45,1.1,4.0,66,0.00,,,0.00,WUHU216HW,2013-02-08 03:36:00,
2013-02-07 22:41:00,32.0,22.0,30.35,NE,45,4.5,4.5,66,0.00,,,0.00,WUHU216HW,2013-02-08 03:41:00,
2013-02-07 22:46:00,32.0,22.0,30.34,East,90,2.2,4.5,66,0.00,,,0.00,WUHU216HW,2013-02-08 03:46:00,
2013-02-07 22:51:00,32.0,22.0,30.34,ENE,68,2.0,4.5,66,0.00,,,0.00,WUHU216HW,2013-02-08 03:51:00,
2013-02-07 22:56:00,32.0,22.3,30.34,East,90,1.8,2.7,67,0.00,,,0.00,WUHU216HW,2013-02-08 03:56:00,
2013-02-07 23:01:00,32.2,22.5,30.33,ENE,68,3.1,3.1,67,0.00,,,0.00,WUHU216HW,2013-02-08 04:01:00,
2013-02-07 23:06:00,32.2,22.5,30.33,North,0,0.0,3.1,67,0.00,,,0.00,WUHU216HW,2013-02-08 04:06:00,
2013-02-07 23:11:00,32.4,22.7,30.33,North,0,0.0,3.1,67,0.00,,,0.00,WUHU216HW,2013-02-08 04:11:00,
2013-02-07 23:16:00,32.6,22.8,30.32,North,0,0.0,0.0,67,0.00,,,0.00,WUHU216HW,2013-02-08 04:16:00,
2013-02-07 23:21:00,32.6,22.8,30.32,North,0,0.0,0.0,67,0.00,,,0.00,WUHU216HW,2013-02-08 04:21:00,
2013-02-07 23:26:00,32.6,22.8,30.32,North,0,0.0,0.0,67,0.00,,,0.00,WUHU216HW,2013-02-08 04:26:00,
2013-02-07 23:31:00,32.6,22.8,30.32,North,0,0.0,0.0,67,0.00,,,0.00,WUHU216HW,2013-02-08 04:31:00,
2013-02-07 23:36:00,32.6,22.8,30.31,North,0,0.0,0.0,67,0.00,,,0.00,WUHU216HW,2013-02-08 04:36:00,
2013-02-07 23:41:00,32.6,22.8,30.31,North,0,0.0,0.0,67,0.00,,,0.00,WUHU216HW,2013-02-08 04:41:00,
2013-02-07 23:46:00,32.6,22.8,30.31,North,0,0.0,0.0,67,0.00,,,0.00,WUHU216HW,2013-02-08 04:46:00,
2013-02-07 23:51:00,32.6,23.1,30.31,North,0,0.0,0.0,68,0.00,,,0.00,WUHU216HW,2013-02-08 04:51:00,
2013-02-07 23:56:00,32.6,23.1,30.31,North,0,0.0,0.0,68,0.00,,,0.00,WUHU216HW,2013-02-08 04:56:00,